Tracking 17155 objects as of 29-July-2015
HD Live streaming from Space Station

MOZ.5/SAFIR/RUBIN 5/SL-8

Track MOZ.5/SAFIR/RUBIN 5/SL-8 now!
10-day predictions
MOZ.5/SAFIR/RUBIN 5/SL-8 is classified as:


NORAD ID: 28898
Int'l Code: 2005-043G
Perigee: 686.7 km
Apogee: 714.3 km
Inclination: 97.8 °
Period: 98.6 minutes
Semi major axis: 7071 km
RCS: 6.834 m2 (large)
Launch date: October 27, 2005
Source: Germany (GER)
Your satellite tracking list
Your tracking list is empty





NASA's NSSDC Master Catalog

Two Line Element Set (TLE):
1 28898U 05043G   15209.50323845  .00000154  00000-0  41075-4 0  9995
2 28898 097.8492 021.9016 0019566 193.3729 166.6956 14.59938475519195

Source of the keplerian elements: AFSPC

N2YO: 328